Regional Weather Roundup
Issued by NWS

Home | Current Version | Previous Version | Graphics & Text | Print | Product List | Glossary On
Versions: 1 2 3 4 5 6 7 8 9 10 11 12 13 14 15 16 17 18 19 20 21 22 23 24 25 26 27 28 29 30 31 32 33 34 35 36 37 38 39 40 41 42 43 44 45 46 47 48 49
000
ASUS45 KCYS 221410
RWRWY

WYOMING REGIONAL WEATHER ROUNDUP
NATIONAL WEATHER SERVICE CHEYENNE WY
700 AM MST MON DEC 22 2014

NOTE:  "FAIR" INDICATES FEW OR NO CLOUDS BELOW 12,000 FEET
WITH NO SIGNIFICANT WEATHER AND/OR OBSTRUCTIONS TO VISIBILITY.

WYZ001-221500-
YELLOWSTONE NATIONAL PARK

CITY           SKY/WX    TMP DP  RH WIND       PRES   REMARKS
LK YELLOWSTONE   N/A     22  18  85 VRB3      29.82R
W YELLOWSTONE  NOT AVBL

$$
WYZ002>013-054>058-071-098>099-221500-
NORTHERN WYOMING

CITY           SKY/WX    TMP DP  RH WIND       PRES   REMARKS
JACKSON        LGT SNOW  28  27  93 S9        29.85R VSB 1   WCI  20
CODY           CLOUDY    32  27  80 CALM      29.76R
GREYBULL       CLOUDY    33  28  81 NW13      29.76F WCI  24
WORLAND        LGT SNOW  31  26  82 NW6       29.78R WCI  25
SHERIDAN       CLOUDY    34  23  64 NW16      29.71R WCI  24
BUFFALO        CLOUDY    33  21  61 NW13G26   29.70R WCI  24
GILLETTE       CLOUDY    32  22  66 NW17      29.66S WCI  21
HULETT           N/A    N/A N/A N/A MISG        N/A
NEWCASTLE      FAIR      28  28 100 NW8       29.65R WCI  20

$$
WYZ014>020-022>026-101>103-221500-
CENTRAL WYOMING

CITY           SKY/WX    TMP DP  RH WIND       PRES   REMARKS
BIG PINEY      CLOUDY    23  21  92 W8        29.83F WCI  14
PINEDALE       FLURRIES  18  18 100 CALM      29.84S
DUBOIS         NOT AVBL
LANDER         FAIR      26  13  57 SW12      29.73F WCI  16
RIVERTON       FAIR      29  19  66 N9        29.76R WCI  20
CASPER         CLOUDY    24  19  81 NE3       29.74S
DOUGLAS        FAIR      25  19  78 NW12      29.72F WCI  14

$$
WYZ021-027>030-104>119-221500-
SOUTHERN WYOMING

CITY           SKY/WX    TMP DP  RH WIND       PRES   REMARKS
EVANSTON       LGT SNOW  30  29  96 W13       29.91S FOG     WCI  20
KEMMERER       LGT SNOW  28  27  93 W10       29.87S WCI  19
FORT BRIDGER   LGT SNOW  31  30  97 W9G18     29.90F WCI  23
ROCK SPRINGS   CLOUDY    27  22  81 W14       29.84S WCI  16
DIXON          CLOUDY    30  25  81 W5        29.85F WCI  26
RAWLINS        CLOUDY    24  18  77 W16       29.77F WCI  11
SARATOGA       CLOUDY    25  19  80 CALM      29.79F
LARAMIE        MOCLDY    20  12  71 NW10      29.71S WCI   9
CHEYENNE       FAIR      25  16  68 NW10      29.71R WCI  15
TORRINGTON     FAIR     N/A N/A N/A NW6       29.70R
PINE BLUFFS    FAIR      25  21  86 W13       29.72S WCI  13

$$


USA.gov is the U.S. government's official web portal to all federal, state and local government web resources and services.